• In Netherlands
  • List of Countries
  • For 7 days
  • Water Temperature
  • Satellite Maps
  • Weather Map
  • Weather Widgets
  • user-avatar
    Login

    Hourly Weather Yulara

    Today, 25 June, Sunday

    Time Temperature Precipitation Wind Pressure Humidity
    00:00 +19°C° 0 mm 5 mps 720 mmHg 44%
    01:00 +17°C° 0 mm 5 mps 720 mmHg 46%
    02:00 +17°C° 0 mm 5 mps 719 mmHg 48%
    03:00 +16°C° 0 mm 6 mps 719 mmHg 48%
    04:00 +16°C° 0 mm 5 mps 719 mmHg 50%
    05:00 +15°C° 0 mm 5 mps 719 mmHg 51%
    06:00 +15°C° 0 mm 4 mps 719 mmHg 53%
    07:00 +15°C° 0.1 mm 5 mps 720 mmHg 52%
    08:00 +15°C° 0.1 mm 5 mps 720 mmHg 51%
    09:00 +16°C° 0 mm 6 mps 720 mmHg 45%
    10:00 +19°C° 0 mm 6 mps 720 mmHg 42%
    11:00 +20°C° 0 mm 6 mps 720 mmHg 38%
    12:00 +22°C° 0 mm 6 mps 720 mmHg 35%
    13:00 +22°C° 0 mm 6 mps 720 mmHg 33%
    14:00 +23°C° 0 mm 5 mps 720 mmHg 31%
    15:00 +26°C° 0 mm 4 mps 719 mmHg 25%
    16:00 +23°C° 0 mm 4 mps 719 mmHg 27%
    17:00 +22°C° 0 mm 4 mps 719 mmHg 30%
    18:00 +21°C° 0 mm 4 mps 719 mmHg 33%
    19:00 +20°C° 0 mm 4 mps 719 mmHg 37%
    20:00 +19°C° 0 mm 5 mps 719 mmHg 41%
    21:00 +17°C° 0 mm 6 mps 719 mmHg 45%
    22:00 +17°C° 0 mm 6 mps 720 mmHg 49%
    23:00 +16°C° 0 mm 6 mps 720 mmHg 54%

    Tomorrow, 26 June, Monday

    Time Temperature Precipitation Wind Pressure Humidity
    00:00 +15°C° 0 mm 6 mps 720 mmHg 58%
    01:00 +15°C° 0.2 mm 6 mps 720 mmHg 61%
    02:00 +14°C° 0.2 mm 6 mps 720 mmHg 63%
    03:00 +14°C° 0.2 mm 6 mps 720 mmHg 66%
    04:00 +14°C° 0.1 mm 7 mps 720 mmHg 67%
    05:00 +14°C° 0.1 mm 7 mps 720 mmHg 68%
    06:00 +12°C° 0.1 mm 8 mps 720 mmHg 68%
    07:00 +13°C° 0 mm 8 mps 720 mmHg 68%
    08:00 +13°C° 0 mm 8 mps 720 mmHg 67%
    09:00 +13°C° 0 mm 8 mps 721 mmHg 66%
    10:00 +13°C° 0.1 mm 8 mps 720 mmHg 63%
    11:00 +15°C° 0.1 mm 9 mps 720 mmHg 60%
    12:00 +16°C° 0.1 mm 9 mps 720 mmHg 57%
    13:00 +16°C° 0.7 mm 8 mps 720 mmHg 58%
    14:00 +16°C° 0.7 mm 8 mps 719 mmHg 59%
    15:00 +16°C° 0.7 mm 7 mps 719 mmHg 61%
    16:00 +15°C° 0.6 mm 7 mps 719 mmHg 66%
    17:00 +14°C° 0.6 mm 7 mps 719 mmHg 72%
    18:00 +12°C° 0.6 mm 8 mps 720 mmHg 77%
    19:00 +12°C° 0.5 mm 8 mps 720 mmHg 77%
    20:00 +12°C° 0.5 mm 7 mps 720 mmHg 77%
    21:00 +12°C° 0.5 mm 7 mps 720 mmHg 77%
    22:00 +12°C° 0.4 mm 7 mps 720 mmHg 77%
    23:00 +12°C° 0.4 mm 7 mps 721 mmHg 76%

    Day after tomorrow, 27 June, Tuesday

    Time Temperature Precipitation Wind Pressure Humidity
    00:00 +12°C° 0.4 mm 7 mps 721 mmHg 75%
    01:00 +12°C° 0.2 mm 7 mps 720 mmHg 75%
    02:00 +12°C° 0.2 mm 7 mps 720 mmHg 75%
    03:00 +11°C° 0.2 mm 7 mps 720 mmHg 75%
    04:00 +11°C° 0.4 mm 6 mps 720 mmHg 76%
    05:00 +11°C° 0.4 mm 6 mps 720 mmHg 77%
    06:00 +11°C° 0.4 mm 6 mps 720 mmHg 78%
    07:00 +11°C° 0.4 mm 6 mps 720 mmHg 76%
    08:00 +11°C° 0.4 mm 6 mps 721 mmHg 74%
    09:00 +13°C° 0.4 mm 6 mps 721 mmHg 73%
    10:00 +13°C° 1 mm 5 mps 721 mmHg 73%
    11:00 +13°C° 1 mm 4 mps 720 mmHg 74%
    12:00 +13°C° 1 mm 3 mps 720 mmHg 74%
    13:00 +14°C° 0.4 mm 3 mps 720 mmHg 72%
    14:00 +14°C° 0.4 mm 4 mps 719 mmHg 70%
    15:00 +15°C° 0.4 mm 4 mps 719 mmHg 67%
    16:00 +14°C° 0.1 mm 4 mps 719 mmHg 71%
    17:00 +14°C° 0.1 mm 4 mps 719 mmHg 75%
    18:00 +13°C° 0.1 mm 4 mps 720 mmHg 79%
    19:00 +13°C° 0 mm 4 mps 720 mmHg 80%
    20:00 +12°C° 0 mm 4 mps 721 mmHg 82%
    21:00 +12°C° 0 mm 4 mps 721 mmHg 84%
    22:00 +12°C° 0 mm 4 mps 721 mmHg 86%
    23:00 +11°C° 0 mm 4 mps 721 mmHg 87%

    28 June, Wednesday

    Time Temperature Precipitation Wind Pressure Humidity
    00:00 +11°C° 0 mm 3 mps 721 mmHg 89%
    01:00 +11°C° 0 mm 3 mps 721 mmHg 90%
    02:00 +10°C° 0 mm 4 mps 721 mmHg 91%
    03:00 +10°C° 0 mm 4 mps 721 mmHg 92%
    04:00 +10°C° 0 mm 4 mps 721 mmHg 92%
    05:00 +10°C° 0 mm 4 mps 721 mmHg 92%
    06:00 +10°C° 0 mm 4 mps 722 mmHg 92%
    07:00 +9°C° 0 mm 5 mps 722 mmHg 87%
    08:00 +10°C° 0 mm 6 mps 723 mmHg 82%
    09:00 +11°C° 0 mm 7 mps 723 mmHg 77%
    10:00 +12°C° 0 mm 7 mps 723 mmHg 72%
    11:00 +14°C° 0 mm 7 mps 723 mmHg 67%
    12:00 +15°C° 0 mm 7 mps 723 mmHg 62%
    13:00 +15°C° 0 mm 7 mps 723 mmHg 61%
    14:00 +15°C° 0 mm 7 mps 723 mmHg 60%
    15:00 +15°C° 0 mm 7 mps 723 mmHg 59%
    16:00 +14°C° 0 mm 7 mps 723 mmHg 61%
    17:00 +14°C° 0 mm 7 mps 724 mmHg 62%
    18:00 +12°C° 0 mm 7 mps 724 mmHg 64%
    19:00 +12°C° 0 mm 7 mps 725 mmHg 66%
    20:00 +11°C° 0 mm 7 mps 725 mmHg 69%
    21:00 +10°C° 0 mm 6 mps 726 mmHg 71%
    22:00 +10°C° 0 mm 6 mps 726 mmHg 71%
    23:00 +9°C° 0 mm 6 mps 726 mmHg 72%

    29 June, Thursday

    Time Temperature Precipitation Wind Pressure Humidity
    00:00 +9°C° 0 mm 6 mps 726 mmHg 72%
    01:00 +9°C° 0 mm 6 mps 726 mmHg 75%
    02:00 +8°C° 0 mm 6 mps 726 mmHg 78%
    03:00 +8°C° 0 mm 6 mps 726 mmHg 80%
    04:00 +8°C° 0 mm 6 mps 726 mmHg 81%
    05:00 +7°C° 0 mm 6 mps 726 mmHg 83%
    06:00 +7°C° 0 mm 6 mps 726 mmHg 84%
    07:00 +8°C° 0 mm 7 mps 727 mmHg 80%
    08:00 +7°C° 0 mm 8 mps 727 mmHg 76%
    09:00 +8°C° 0 mm 9 mps 728 mmHg 73%
    10:00 +10°C° 0 mm 9 mps 727 mmHg 65%
    11:00 +11°C° 0 mm 8 mps 727 mmHg 57%
    12:00 +12°C° 0 mm 8 mps 727 mmHg 49%
    13:00 +13°C° 0 mm 8 mps 726 mmHg 44%
    14:00 +13°C° 0 mm 8 mps 726 mmHg 39%
    15:00 +15°C° 0 mm 8 mps 725 mmHg 34%
    16:00 +14°C° 0 mm 7 mps 725 mmHg 36%
    17:00 +12°C° 0 mm 7 mps 725 mmHg 38%
    18:00 +11°C° 0 mm 6 mps 726 mmHg 40%
    19:00 +10°C° 0 mm 6 mps 726 mmHg 45%
    20:00 +9°C° 0 mm 6 mps 727 mmHg 49%
    21:00 +9°C° 0 mm 6 mps 727 mmHg 53%
    22:00 +8°C° 0 mm 5 mps 727 mmHg 56%
    23:00 +8°C° 0 mm 5 mps 727 mmHg 59%

    30 June, Friday

    Time Temperature Precipitation Wind Pressure Humidity
    00:00 +7°C° 0 mm 5 mps 727 mmHg 62%
    01:00 +7°C° 0 mm 5 mps 726 mmHg 65%
    02:00 +6°C° 0 mm 5 mps 726 mmHg 67%
    03:00 +6°C° 0 mm 5 mps 726 mmHg 70%
    04:00 +6°C° 0 mm 5 mps 726 mmHg 72%
    05:00 +5°C° 0 mm 5 mps 726 mmHg 73%
    06:00 +5°C° 0 mm 5 mps 726 mmHg 75%
    07:00 +5°C° 0 mm 6 mps 726 mmHg 72%
    08:00 +6°C° 0 mm 7 mps 726 mmHg 68%
    09:00 +6°C° 0 mm 7 mps 727 mmHg 65%
    10:00 +9°C° 0 mm 7 mps 726 mmHg 58%
    11:00 +11°C° 0 mm 7 mps 726 mmHg 52%
    12:00 +12°C° 0 mm 7 mps 725 mmHg 46%
    13:00 +14°C° 0 mm 7 mps 724 mmHg 43%
    14:00 +15°C° 0 mm 7 mps 724 mmHg 40%
    15:00 +15°C° 0 mm 7 mps 723 mmHg 37%
    16:00 +14°C° 0 mm 6 mps 723 mmHg 39%
    17:00 +14°C° 0 mm 5 mps 723 mmHg 42%
    18:00 +13°C° 0 mm 4 mps 723 mmHg 44%
    19:00 +12°C° 0 mm 5 mps 723 mmHg 46%
    20:00 +10°C° 0 mm 5 mps 724 mmHg 48%
    21:00 +10°C° 0 mm 5 mps 724 mmHg 50%
    22:00 +9°C° 0 mm 5 mps 724 mmHg 52%
    23:00 +9°C° 0 mm 5 mps 724 mmHg 54%
    Show more